Wind_Speed
4 5 5 5 6 6 6 5 4 4 4 4 4 4 4 2 2 2 2 2 2 3 3 4 4 4 4 4 4 3 3 3 4 4 4 4 5 4 4 4 3 3 3 3 3 3 3 3 3
4 5 5 5 5 5 5 6 5 5 4 4 4 4 3 2 2 2 2 1 1 2 3 3 3 3 4 3 3 3 2 3 3 4 4 3 3 4 3 3 3 2 2 2 2 2 3 3 3
5 5 5 6 6 6 6 6 6 5 5 5 5 4 4 3 2 2 2 1 2 2 3 3 3 3 3 3 3 3 2 2 2 3 3 3 3 3 2 2 2 1 0 0 1 2 3 4 4
5 5 6 6 7 7 7 6 6 6 6 6 5 5 4 4 3 3 2 1 1 2 3 3 3 3 3 3 3 3 2 2 2 2 2 2 2 1 1 1 0 1 0 1 1 2 3 4 4
4 5 6 6 7 7 8 7 6 6 6 6 6 6 5 5 4 4 3 2 2 2 3 4 3 4 3 3 3 3 3 2 2 2 2 1 1 1 0 0 1 1 1 2 2 3 4 5 5
5 5 6 6 6 7 7 7 7 7 7 7 7 7 6 6 6 5 4 3 3 3 3 4 4 4 4 4 3 3 3 3 3 3 3 2 2 2 2 2 2 2 2 3 3 4 5 5 5
5 5 6 6 7 7 7 7 7 8 9 8 8 8 8 7 7 6 5 5 4 4 4 4 4 5 5 5 5 5 4 4 3 3 3 3 3 3 3 3 4 4 3 4 5 6 6 6 6
6 7 7 7 8 7 7 8 8 9 9 9 9 8 8 8 8 8 7 6 6 5 5 5 5 5 5 6 6 5 4 4 4 5 4 4 4 4 4 4 5 5 5 5 6 6 6 7 7
6 7 8 8 8 8 8 8 9 9 9 9 9 8 8 9 9 9 9 8 8 7 6 6 6 6 7 7 6 6 6 6 5 6 6 5 5 5 6 5 5 6 6 6 6 6 6 6 7
7 8 8 9 9 9 9 9 8 8 9 9 9 9 9 9 9 9 10 10 9 9 9 8 8 7 7 8 8 7 7 7 7 7 7 7 7 7 6 7 7 7 7 7 7 7 7 7 7
7 8 8 9 9 10 10 9 9 9 9 9 10 10 10 10 10 10 10 10 10 10 10 9 9 8 8 9 9 9 9 8 8 8 8 8 8 8 8 7 7 7 7 7 7 7 7 7 8
7 8 9 9 10 10 10 10 9 9 10 10 10 10 11 11 11 11 10 10 10 11 11 10 10 10 10 9 10 10 10 10 10 9 9 9 8 8 8 8 7 7 7 8 8 8 8 8 8
7 8 8 9 10 10 10 11 10 10 11 11 11 11 11 12 12 12 12 11 11 12 11 11 11 11 11 11 11 11 11 11 11 11 10 10 9 9 9 9 9 8 8 9 9 9 9 9 8
8 8 8 9 10 10 11 11 11 11 11 12 12 12 12 12 13 13 12 13 12 12 12 12 13 13 12 12 12 12 12 12 12 12 11 10 10 10 9 9 9 9 9 9 9 9 9 9 9
9 9 9 9 10 10 11 11 12 12 11 11 12 12 12 12 13 13 13 13 13 14 14 13 14 14 14 13 13 14 13 13 13 13 12 11 11 10 10 9 9 10 10 9 9 9 9 10 10
9 10 10 10 10 10 11 11 12 12 12 12 12 12 12 12 12 13 13 13 14 14 14 14 15 15 14 14 14 14 14 14 13 13 12 12 12 11 11 11 10 10 10 10 9 9 10 10 10
9 10 10 10 10 10 11 11 12 13 12 13 12 12 12 12 12 13 14 14 14 15 15 15 15 15 15 14 14 13 13 13 13 13 13 13 13 12 12 12 12 11 11 11 11 10 10 10 10
9 10 10 10 10 11 11 12 13 13 13 14 13 13 12 12 13 14 14 15 15 15 14 14 15 15 15 14 14 13 13 13 14 14 13 13 13 13 12 12 12 12 12 12 12 11 11 11 11
9 9 10 10 11 11 12 12 13 13 14 14 14 13 13 13 14 14 14 14 15 15 14 14 15 14 14 14 14 14 14 14 15 15 14 14 13 13 13 12 12 13 12 13 13 12 11 12 11
9 10 11 11 12 12 12 12 12 13 14 14 14 14 14 14 14 15 14 15 15 15 15 15 15 14 14 14 14 14 15 15 15 14 14 14 14 14 13 12 13 13 13 13 13 12 12 11 11
9 10 11 11 12 12 12 12 12 12 13 14 14 14 15 15 15 15 14 14 14 14 15 16 15 15 15 15 15 16 15 15 15 14 14 14 14 13 13 13 13 13 13 13 12 12 11 11 12
10 10 10 11 11 12 12 12 12 13 13 13 14 14 15 15 15 15 15 15 14 14 14 15 15 16 16 15 16 16 15 15 15 15 14 14 14 14 14 14 14 14 13 13 13 12 12 12 12
10 10 10 11 11 11 12 12 11 12 13 14 14 14 14 15 15 15 15 15 14 14 15 15 14 15 15 15 15 15 15 14 14 14 14 14 14 14 14 14 14 14 13 13 12 12 12 12 12
10 11 11 11 11 12 12 12 12 12 13 14 15 15 14 15 15 15 15 16 16 15 15 14 14 14 15 14 15 15 15 15 14 13 14 14 14 14 14 14 14 14 14 14 13 13 13 13 13
11 11 11 12 12 12 12 13 12 12 13 14 14 15 15 15 16 16 16 16 16 16 15 14 14 14 14 15 15 15 15 15 15 14 14 14 14 14 14 15 14 15 15 15 14 13 14 14 14
12 12 12 13 13 13 13 13 13 13 14 14 14 15 15 15 15 15 15 15 15 15 15 14 15 15 15 14 15 15 15 16 15 14 15 15 15 15 15 15 15 15 15 15 15 15 15 14 14
13 13 13 13 13 13 13 14 14 14 14 14 14 14 14 14 14 14 15 15 15 15 15 15 15 15 15 15 15 15 15 15 15 14 15 15 15 15 15 15 15 15 15 15 15 14 14 14 14
14 13 13 13 13 13 14 14 14 14 14 14 14 14 14 14 14 13 14 14 14 15 15 15 16 16 16 16 16 15 15 16 16 15 15 15 16 15 15 16 16 15 15 15 15 15 15 15 14
14 14 14 14 14 14 15 15 15 14 14 14 13 14 14 14 14 14 14 14 15 15 16 16 16 17 17 16 16 15 15 16 16 16 16 16 16 16 16 17 16 15 16 15 15 15 15 15 14
15 15 15 15 15 15 16 16 15 14 14 14 14 14 14 14 14 14 14 15 15 15 16 16 16 16 16 16 16 16 16 16 16 17 17 17 17 17 17 17 17 16 16 15 15 15 15 15 14
Wind_Direction
170 169 167 168 170 172 175 172 169 168 168 162 161 157 150 144 134 130 120 120 108 113 126 137 142 139 141 137 135 128 117 110 108 108 109 105 107 105 97 104 102 92 82 76 62 51 41 26 12
187 185 187 185 182 186 192 188 184 183 191 188 185 183 178 170 158 151 134 128 143 152 158 155 158 153 150 147 149 149 136 129 120 119 113 107 109 100 96 102 96 85 78 64 52 34 21 8 357
205 200 196 197 195 201 204 202 196 195 204 210 212 211 209 204 194 176 154 129 141 170 182 186 185 185 184 179 174 173 165 163 149 134 123 120 117 103 93 98 93 81 41 356 2 354 359 354 349
212 207 203 202 205 211 214 212 211 209 212 219 224 225 228 227 223 215 206 192 178 192 202 202 204 202 194 189 188 194 190 192 184 167 146 149 149 134 96 107 46 301 279 310 321 330 340 340 339
214 210 206 208 215 219 221 222 221 222 221 220 224 229 235 238 235 229 231 233 227 244 231 228 225 213 206 210 216 221 218 224 215 212 208 197 192 177 173 343 354 306 288 301 316 321 330 332 332
217 210 206 214 223 228 229 231 231 233 236 230 230 231 235 240 242 236 236 241 246 247 250 245 241 235 234 230 238 240 244 244 230 224 228 236 224 229 255 276 282 288 301 311 311 316 319 321 320
223 221 215 216 223 231 233 235 239 244 247 244 236 234 237 241 245 244 241 245 250 250 244 244 253 258 248 238 242 238 242 242 238 233 234 238 242 256 267 282 286 282 288 304 308 315 316 318 316
229 227 224 223 226 232 234 232 239 248 252 247 244 241 240 243 245 247 248 247 246 248 251 254 257 251 241 237 236 242 244 241 240 239 242 248 253 260 270 280 287 287 293 299 307 318 321 317 315
235 232 232 230 231 234 236 238 241 245 248 245 246 244 246 247 247 248 249 249 247 251 253 254 254 248 241 240 239 243 245 250 248 248 248 250 256 264 270 272 280 281 289 295 302 308 312 313 314
240 238 238 236 237 238 238 243 246 245 243 242 241 245 248 250 252 253 251 251 250 249 249 250 249 251 249 247 245 247 249 255 255 256 255 253 255 261 266 272 278 279 287 292 295 299 303 306 307
246 244 244 244 243 244 244 244 247 248 244 244 245 247 249 252 253 255 255 254 252 252 252 254 253 254 254 253 253 254 255 256 256 256 257 260 261 262 266 271 276 279 285 290 295 297 296 297 300
249 248 246 246 247 248 248 248 250 245 244 247 250 249 250 253 255 257 258 258 258 257 256 257 254 254 253 253 253 255 257 256 259 259 260 263 261 261 263 269 272 276 283 289 290 290 292 295 298
253 251 248 246 247 249 251 253 256 252 250 249 250 253 255 256 260 261 260 261 260 259 258 258 255 254 254 255 255 256 258 259 261 260 261 262 261 259 261 264 271 277 282 286 291 288 290 296 299
254 253 251 249 248 250 252 255 257 254 254 254 253 255 257 257 259 260 261 261 260 259 257 256 257 257 255 256 255 256 259 259 260 261 259 257 258 259 261 265 271 277 280 283 286 287 290 293 298
255 254 253 252 250 250 254 257 260 258 257 256 257 257 260 260 260 260 262 262 262 261 258 258 260 256 256 256 257 259 258 257 258 259 256 254 255 257 263 267 272 275 278 280 283 287 289 290 293
258 257 256 256 254 254 255 259 261 261 259 259 260 261 265 263 264 263 262 262 261 260 261 260 259 256 258 257 258 259 257 254 254 257 255 257 258 259 261 267 272 276 277 279 282 285 288 288 287
258 258 256 254 256 258 259 260 261 261 258 258 260 264 265 262 263 264 264 264 263 262 262 260 258 258 257 258 258 258 256 255 254 256 259 260 260 262 263 266 270 271 273 278 282 285 286 286 286
258 257 257 258 260 260 261 260 259 260 259 259 261 262 262 262 263 266 267 266 264 262 261 259 258 256 255 254 255 256 256 257 257 256 256 259 262 261 262 267 268 268 272 276 280 281 283 283 285
262 260 259 263 265 264 263 261 259 259 261 261 262 264 264 264 264 267 269 270 266 262 258 256 256 255 254 251 253 257 257 259 260 260 258 259 263 260 259 262 265 269 274 277 276 277 279 278 280
267 266 265 268 267 267 266 266 264 263 262 263 264 265 264 265 264 265 267 268 267 262 256 255 257 253 253 251 253 258 259 261 260 260 259 260 262 260 262 263 266 271 275 275 274 274 275 277 280
270 270 270 271 269 267 269 269 269 268 267 264 263 264 264 264 264 265 264 265 265 261 258 256 255 253 255 252 253 257 258 258 259 259 260 262 262 259 261 263 267 269 273 274 273 271 272 276 279
272 271 271 271 269 270 272 272 271 271 272 271 266 264 265 263 263 263 262 265 264 260 258 258 255 254 254 256 257 257 255 256 256 257 260 262 261 261 262 262 265 267 270 271 273 272 274 276 278
274 275 274 273 272 272 274 272 271 272 272 273 271 268 268 268 266 264 262 263 262 258 256 258 257 255 254 256 257 258 255 256 256 258 259 259 260 260 260 261 265 269 271 270 270 273 274 276 277
276 276 277 276 276 274 275 274 272 272 273 272 270 269 269 270 267 266 263 261 260 256 258 259 258 257 255 257 258 258 257 255 257 258 258 259 259 259 260 262 266 268 269 273 274 273 273 273 274
276 277 278 280 278 277 277 276 277 276 278 276 271 268 268 268 266 266 265 263 260 257 256 257 256 254 255 256 258 259 258 256 256 257 259 259 258 259 260 263 266 268 269 273 275 276 276 274 274
276 276 275 277 278 278 275 275 277 278 279 277 273 271 270 266 264 263 263 262 260 256 253 254 256 254 255 257 259 261 260 257 256 258 259 258 258 259 261 263 266 268 268 270 273 275 277 275 274
271 270 271 272 276 277 276 276 278 281 281 278 274 272 272 268 266 264 262 260 259 255 253 252 255 254 254 256 259 261 260 258 258 259 259 259 261 262 260 260 263 266 267 269 272 274 276 275 275
268 268 268 268 272 274 275 277 282 282 283 277 274 273 273 270 268 265 265 264 260 256 253 252 255 255 255 258 260 259 259 259 259 259 259 260 261 263 260 260 263 266 267 270 271 273 276 277 275
266 267 269 270 271 275 276 278 282 283 281 275 272 271 269 268 267 266 267 265 262 257 254 254 256 256 255 255 256 257 259 261 259 258 258 260 263 263 262 262 264 266 268 267 269 272 275 276 274
264 265 269 272 274 274 278 279 282 281 280 277 274 271 268 267 266 265 267 265 262 259 256 256 258 259 258 254 255 256 259 259 257 256 258 260 262 262 263 264 264 266 266 266 270 273 274 274 274
Height
5893 5893 5895 5896 5897 5898 5898 5899 5899 5900 5900 5900 5900 5901 5901 5901 5902 5904 5901 5899 5899 5899 5898 5898 5898 5898 5898 5898 5897 5897 5897 5897 5897 5897 5897 5897 5897 5897 5896 5896 5896 5896 5895 5895 5894 5894 5893 5893 5892
5892 5893 5895 5896 5897 5897 5898 5898 5899 5899 5899 5900 5900 5900 5901 5901 5901 5901 5900 5899 5899 5899 5898 5898 5898 5898 5898 5898 5898 5897 5897 5897 5897 5897 5897 5897 5897 5897 5897 5896 5896 5896 5895 5895 5894 5894 5894 5893 5892
5892 5893 5895 5896 5896 5897 5897 5897 5898 5898 5899 5899 5900 5900 5900 5900 5900 5900 5900 5899 5899 5899 5899 5898 5898 5898 5898 5898 5898 5898 5898 5897 5897 5897 5897 5897 5897 5897 5897 5897 5896 5896 5895 5895 5894 5894 5893 5893 5892
5892 5893 5894 5895 5895 5896 5896 5896 5897 5897 5898 5898 5899 5899 5899 5900 5899 5900 5899 5899 5899 5899 5898 5898 5898 5898 5898 5898 5898 5898 5898 5897 5897 5897 5897 5897 5897 5897 5897 5897 5896 5896 5895 5895 5894 5894 5893 5892 5891
5891 5892 5893 5893 5894 5895 5895 5895 5896 5896 5897 5897 5898 5898 5898 5899 5898 5899 5899 5899 5898 5898 5898 5898 5898 5898 5898 5898 5898 5897 5897 5897 5897 5897 5897 5897 5897 5897 5897 5896 5896 5895 5895 5894 5894 5893 5892 5892 5891
5891 5891 5893 5893 5893 5893 5894 5894 5894 5895 5895 5896 5896 5897 5897 5897 5897 5898 5898 5898 5898 5897 5897 5897 5897 5897 5897 5897 5897 5897 5897 5897 5897 5897 5897 5897 5897 5897 5897 5896 5896 5895 5894 5894 5893 5893 5892 5891 5890
5890 5891 5891 5891 5892 5892 5893 5893 5893 5893 5894 5894 5895 5895 5896 5896 5896 5896 5897 5897 5897 5897 5896 5896 5896 5896 5896 5896 5896 5897 5897 5897 5897 5897 5897 5897 5897 5896 5896 5896 5895 5894 5894 5894 5893 5892 5891 5890 5889
5888 5890 5890 5890 5891 5891 5891 5891 5892 5892 5892 5893 5893 5894 5894 5895 5895 5895 5895 5896 5896 5896 5896 5895 5895 5895 5895 5895 5895 5896 5896 5896 5896 5896 5896 5896 5896 5896 5896 5895 5895 5894 5893 5893 5892 5891 5890 5889 5888
5887 5889 5888 5889 5889 5889 5890 5890 5890 5890 5891 5891 5892 5892 5893 5893 5893 5893 5894 5894 5895 5895 5895 5894 5894 5894 5894 5894 5895 5895 5895 5895 5895 5895 5895 5895 5895 5895 5895 5894 5894 5893 5893 5892 5891 5890 5889 5888 5887
5885 5886 5887 5887 5887 5888 5888 5888 5889 5889 5889 5890 5890 5890 5891 5891 5891 5892 5892 5892 5893 5893 5893 5893 5893 5893 5893 5893 5893 5894 5894 5894 5894 5894 5894 5894 5894 5893 5893 5893 5892 5892 5891 5891 5890 5889 5888 5887 5886
5883 5884 5884 5885 5885 5886 5886 5887 5887 5887 5888 5888 5888 5889 5889 5889 5890 5890 5890 5890 5891 5891 5891 5891 5891 5891 5891 5892 5892 5892 5892 5893 5893 5892 5892 5892 5892 5892 5892 5891 5891 5890 5890 5889 5888 5888 5887 5886 5885
5881 5882 5882 5883 5883 5884 5884 5885 5885 5885 5886 5886 5886 5886 5887 5887 5887 5888 5888 5888 5888 5889 5889 5889 5889 5889 5890 5890 5890 5891 5891 5891 5891 5891 5891 5890 5890 5890 5890 5890 5889 5889 5888 5888 5887 5886 5885 5884 5883
5879 5879 5880 5880 5881 5881 5882 5882 5883 5883 5883 5884 5884 5884 5884 5885 5885 5885 5886 5886 5886 5886 5887 5887 5887 5887 5888 5888 5888 5889 5889 5889 5889 5889 5889 5889 5888 5888 5888 5888 5888 5887 5887 5886 5885 5884 5884 5883 5882
5877 5877 5878 5878 5878 5879 5879 5880 5880 5881 5881 5881 5882 5882 5882 5882 5882 5883 5883 5883 5883 5884 5884 5884 5884 5885 5885 5885 5886 5886 5886 5886 5886 5887 5886 5886 5886 5886 5886 5886 5886 5885 5885 5884 5884 5883 5882 5881 5880
5874 5875 5876 5876 5876 5876 5877 5878 5878 5878 5878 5879 5879 5879 5880 5880 5880 5880 5880 5880 5881 5881 5881 5881 5882 5882 5882 5883 5883 5883 5883 5884 5884 5884 5884 5884 5884 5884 5884 5884 5884 5884 5883 5882 5882 5881 5880 5879 5878
5872 5873 5873 5874 5874 5874 5876 5876 5875 5875 5876 5876 5876 5877 5877 5877 5877 5877 5877 5877 5877 5878 5878 5878 5879 5879 5879 5880 5880 5880 5880 5881 5881 5881 5881 5882 5882 5882 5882 5882 5882 5881 5881 5880 5880 5879 5878 5877 5876
5870 5870 5871 5871 5871 5872 5873 5873 5873 5873 5873 5873 5874 5874 5874 5874 5874 5874 5874 5874 5874 5874 5875 5875 5875 5876 5876 5877 5877 5877 5878 5878 5878 5879 5879 5879 5879 5879 5879 5879 5879 5879 5879 5878 5878 5877 5876 5875 5874
5868 5868 5868 5869 5869 5869 5869 5870 5870 5870 5870 5871 5871 5871 5871 5871 5871 5871 5871 5871 5871 5871 5871 5871 5872 5872 5873 5874 5874 5875 5875 5875 5876 5876 5876 5876 5876 5876 5877 5876 5876 5876 5876 5876 5875 5874 5874 5873 5872
5865 5865 5866 5867 5866 5867 5867 5867 5867 5867 5867 5867 5868 5868 5868 5868 5868 5868 5868 5868 5868 5868 5868 5868 5868 5869 5869 5870 5871 5872 5872 5872 5873 5873 5873 5873 5873 5873 5874 5874 5874 5874 5873 5873 5872 5871 5871 5870 5870
5862 5863 5863 5864 5863 5864 5864 5864 5864 5864 5864 5864 5864 5864 5865 5865 5865 5865 5864 5864 5864 5864 5865 5865 5865 5866 5866 5867 5868 5869 5869 5869 5870 5870 5870 5870 5870 5870 5871 5871 5871 5871 5870 5870 5869 5869 5868 5867 5867
5859 5860 5860 5860 5860 5860 5861 5861 5861 5860 5860 5860 5860 5860 5861 5861 5861 5861 5861 5861 5861 5861 5862 5862 5862 5862 5863 5864 5864 5865 5866 5866 5866 5867 5867 5867 5867 5867 5868 5868 5868 5868 5867 5867 5866 5866 5865 5865 5864
5857 5857 5857 5857 5857 5858 5858 5858 5858 5857 5856 5856 5856 5857 5857 5857 5857 5857 5857 5857 5857 5858 5858 5858 5859 5859 5860 5861 5861 5862 5862 5863 5863 5863 5864 5864 5864 5864 5865 5865 5865 5865 5864 5864 5863 5863 5863 5862 5862
5854 5854 5854 5854 5854 5855 5854 5855 5855 5853 5853 5853 5853 5853 5853 5853 5853 5853 5853 5853 5854 5854 5854 5855 5856 5856 5857 5857 5858 5859 5859 5860 5860 5860 5861 5861 5861 5861 5861 5861 5861 5861 5861 5861 5860 5860 5860 5859 5859
5850 5851 5851 5851 5851 5852 5851 5851 5852 5850 5849 5849 5848 5848 5848 5848 5848 5849 5849 5849 5850 5850 5851 5852 5852 5853 5853 5854 5855 5855 5856 5856 5857 5857 5857 5858 5858 5858 5858 5858 5858 5858 5858 5858 5857 5857 5857 5856 5855
5848 5848 5849 5848 5848 5849 5848 5847 5848 5847 5846 5845 5844 5844 5844 5844 5844 5845 5845 5845 5846 5847 5847 5848 5849 5849 5850 5851 5852 5852 5853 5853 5853 5854 5854 5854 5855 5855 5855 5855 5855 5855 5854 5854 5854 5853 5853 5853 5852
5844 5845 5846 5846 5845 5845 5844 5844 5844 5843 5842 5841 5840 5840 5840 5840 5840 5841 5841 5842 5842 5843 5844 5845 5845 5846 5847 5847 5848 5848 5849 5849 5849 5850 5850 5850 5851 5851 5851 5851 5851 5851 5851 5850 5850 5850 5849 5849 5848
5840 5841 5841 5841 5841 5841 5841 5840 5840 5839 5838 5837 5836 5836 5836 5836 5836 5837 5837 5837 5838 5839 5840 5841 5842 5842 5843 5844 5844 5845 5845 5845 5846 5846 5846 5846 5847 5847 5847 5847 5847 5847 5847 5846 5846 5846 5845 5845 5844
5837 5837 5837 5837 5837 5837 5837 5836 5836 5835 5834 5833 5832 5832 5832 5832 5832 5832 5833 5833 5834 5835 5836 5837 5838 5839 5840 5840 5841 5841 5841 5842 5842 5842 5842 5842 5843 5843 5843 5843 5843 5843 5843 5842 5842 5842 5841 5841 5840
5833 5833 5832 5833 5833 5833 5833 5835 5832 5831 5830 5829 5828 5828 5828 5828 5828 5828 5829 5829 5830 5831 5832 5833 5834 5835 5835 5836 5837 5837 5837 5838 5838 5838 5838 5839 5839 5839 5839 5839 5839 5839 5839 5838 5838 5838 5837 5837 5836
5828 5828 5829 5829 5829 5828 5828 5832 5827 5827 5825 5825 5824 5824 5824 5824 5824 5824 5825 5825 5826 5827 5828 5829 5830 5830 5831 5832 5832 5833 5833 5833 5834 5834 5834 5835 5834 5834 5834 5835 5835 5835 5834 5834 5834 5834 5833 5833 5832